Year,Month,Day,Hour,Minute,Value (Times are PST for temperature in C)
2009,01,19,08,51,0.10
2009,01,19,08,52,0.10
2009,01,19,08,53,0.10
2009,01,19,08,54,0.10
2009,01,19,08,55,0.10
2009,01,19,08,56,0.10
2009,01,19,08,57,0.10
2009,01,19,08,58,0.20
2009,01,19,08,59,0.20
2009,01,19,09,00,0.20
2009,01,19,09,01,0.20
2009,01,19,09,02,0.20
2009,01,19,09,03,0.20
2009,01,19,09,04,0.20
2009,01,19,09,05,0.20
2009,01,19,09,06,0.20
2009,01,19,09,07,0.20
2009,01,19,09,08,0.20
2009,01,19,09,09,0.20
2009,01,19,09,10,0.20
2009,01,19,09,11,0.20
2009,01,19,09,12,0.20
2009,01,19,09,13,0.20
2009,01,19,09,14,0.20
2009,01,19,09,15,0.20
2009,01,19,09,16,0.20
2009,01,19,09,17,0.30
2009,01,19,09,18,0.30
2009,01,19,09,19,0.30
2009,01,19,09,20,0.30
2009,01,19,09,21,0.30
2009,01,19,09,22,0.30
2009,01,19,09,23,0.30
2009,01,19,09,24,0.30
2009,01,19,09,25,0.30
2009,01,19,09,26,0.30
2009,01,19,09,27,0.40
2009,01,19,09,28,0.40
2009,01,19,09,29,0.40
2009,01,19,09,30,0.40
2009,01,19,09,31,0.40
2009,01,19,09,32,0.40
2009,01,19,09,33,0.40
2009,01,19,09,34,0.40
2009,01,19,09,35,0.40
2009,01,19,09,36,0.50
2009,01,19,09,37,0.50
2009,01,19,09,38,0.50
2009,01,19,09,39,0.50
2009,01,19,09,40,0.50
2009,01,19,09,41,0.50
2009,01,19,09,42,0.60
2009,01,19,09,43,0.60
2009,01,19,09,44,0.60
2009,01,19,09,45,0.60
2009,01,19,09,46,0.60
2009,01,19,09,47,0.60
2009,01,19,09,48,0.60
2009,01,19,09,49,0.60
2009,01,19,09,50,0.60
2009,01,19,09,51,0.60
2009,01,19,09,52,0.60
2009,01,19,09,53,0.60
2009,01,19,09,54,0.60
2009,01,19,09,55,0.60
2009,01,19,09,56,0.60
2009,01,19,09,57,0.60
2009,01,19,09,58,0.60
2009,01,19,09,59,0.60
2009,01,19,10,00,0.60
2009,01,19,10,01,0.60
2009,01,19,10,02,0.60
2009,01,19,10,03,0.60
2009,01,19,10,04,0.60
2009,01,19,10,05,0.60
2009,01,19,10,06,0.60
2009,01,19,10,07,0.60
2009,01,19,10,08,0.60
2009,01,19,10,09,0.60
2009,01,19,10,10,0.60
2009,01,19,10,11,0.60
2009,01,19,10,12,0.60
2009,01,19,10,13,0.60
2009,01,19,10,14,0.70
2009,01,19,10,15,0.70
2009,01,19,10,16,0.70
2009,01,19,10,17,0.70
2009,01,19,10,18,0.80
2009,01,19,10,19,0.80
2009,01,19,10,20,0.80
2009,01,19,10,21,0.80
2009,01,19,10,22,0.80
2009,01,19,10,23,0.90
2009,01,19,10,24,0.90
2009,01,19,10,25,0.90
2009,01,19,10,26,0.90
2009,01,19,10,27,0.90
2009,01,19,10,28,1.00
2009,01,19,10,29,1.00
2009,01,19,10,30,1.00
2009,01,19,10,31,1.00
2009,01,19,10,32,1.10
2009,01,19,10,33,1.10
2009,01,19,10,34,1.10
2009,01,19,10,35,1.10
2009,01,19,10,36,1.10
2009,01,19,10,37,1.10
2009,01,19,10,38,1.10
2009,01,19,10,39,1.20
2009,01,19,10,40,1.20
2009,01,19,10,41,1.20
2009,01,19,10,42,1.20
2009,01,19,10,43,1.20
2009,01,19,10,44,1.20
2009,01,19,10,45,1.20
2009,01,19,10,46,1.20
2009,01,19,10,47,1.20
2009,01,19,10,48,1.20
2009,01,19,10,49,1.20
2009,01,19,10,50,1.20
2009,01,19,10,51,1.20
2009,01,19,10,52,1.20
2009,01,19,10,53,1.30
2009,01,19,10,54,1.30
2009,01,19,10,55,1.30
2009,01,19,10,56,1.30
2009,01,19,10,57,1.30
2009,01,19,10,58,1.30
2009,01,19,10,59,1.30
2009,01,19,11,00,1.30
2009,01,19,11,01,1.40
2009,01,19,11,02,1.40
2009,01,19,11,03,1.50
2009,01,19,11,04,1.50
2009,01,19,11,05,1.60
2009,01,19,11,06,1.60
2009,01,19,11,07,1.50
2009,01,19,11,08,1.50
2009,01,19,11,09,1.50
2009,01,19,11,10,1.50
2009,01,19,11,11,1.50
2009,01,19,11,12,1.50
2009,01,19,11,13,1.50
2009,01,19,11,14,1.60
2009,01,19,11,15,1.60
2009,01,19,11,16,1.70
2009,01,19,11,17,1.70
2009,01,19,11,18,1.70
2009,01,19,11,19,1.70
2009,01,19,11,20,1.70
2009,01,19,11,21,1.80
2009,01,19,11,22,1.70
2009,01,19,11,23,1.70
2009,01,19,11,24,1.70
2009,01,19,11,25,1.70
2009,01,19,11,26,1.70
2009,01,19,11,27,1.80
2009,01,19,11,28,1.80
2009,01,19,11,29,1.80
2009,01,19,11,30,1.80
2009,01,19,11,31,1.80
2009,01,19,11,32,1.80
2009,01,19,11,33,1.80
2009,01,19,11,34,1.80
2009,01,19,11,35,1.90
2009,01,19,11,36,1.90
2009,01,19,11,37,2.00
2009,01,19,11,38,2.00
2009,01,19,11,39,2.00
2009,01,19,11,40,2.00
2009,01,19,11,41,2.10
2009,01,19,11,42,2.10
2009,01,19,11,43,2.10
2009,01,19,11,44,2.10
2009,01,19,11,45,2.10
2009,01,19,11,46,2.10
2009,01,19,11,47,2.10
2009,01,19,11,48,2.10
2009,01,19,11,49,2.10
2009,01,19,11,50,2.00
2009,01,19,11,51,1.90
2009,01,19,11,52,1.90
2009,01,19,11,53,1.90
2009,01,19,11,54,1.80
2009,01,19,11,55,1.80
2009,01,19,11,56,1.80
2009,01,19,11,57,1.80
2009,01,19,11,58,1.80
2009,01,19,11,59,1.80
2009,01,19,12,00,1.80
2009,01,19,12,01,1.80
2009,01,19,12,02,1.80
2009,01,19,12,03,1.80
2009,01,19,12,04,1.80
2009,01,19,12,05,1.80
2009,01,19,12,06,1.70
2009,01,19,12,07,1.70
2009,01,19,12,08,1.80
2009,01,19,12,09,1.80
2009,01,19,12,10,1.80
2009,01,19,12,11,1.90
2009,01,19,12,12,1.90
2009,01,19,12,13,1.90
2009,01,19,12,14,1.90
2009,01,19,12,15,1.90
2009,01,19,12,16,1.90
2009,01,19,12,17,1.90
2009,01,19,12,18,1.90
2009,01,19,12,19,1.90
2009,01,19,12,20,1.90
2009,01,19,12,21,1.90
2009,01,19,12,22,1.90
2009,01,19,12,23,1.90
2009,01,19,12,24,1.90
2009,01,19,12,25,1.90
2009,01,19,12,26,1.90
2009,01,19,12,27,1.90
2009,01,19,12,28,1.90
2009,01,19,12,29,1.90
2009,01,19,12,30,1.90
2009,01,19,12,31,1.90
2009,01,19,12,32,1.90
2009,01,19,12,33,1.80
2009,01,19,12,34,1.80
2009,01,19,12,35,1.80
2009,01,19,12,36,1.80
2009,01,19,12,37,1.80
2009,01,19,12,38,1.90
2009,01,19,12,39,1.90
2009,01,19,12,40,1.90
2009,01,19,12,41,1.90
2009,01,19,12,42,1.90
2009,01,19,12,43,1.90
2009,01,19,12,44,1.90
2009,01,19,12,45,1.90
2009,01,19,12,46,1.90
2009,01,19,12,47,2.00
2009,01,19,12,48,2.00
2009,01,19,12,49,2.00
2009,01,19,12,50,2.00
2009,01,19,12,51,2.00
2009,01,19,12,52,2.00
2009,01,19,12,53,1.90
2009,01,19,12,54,1.90
2009,01,19,12,55,1.90
2009,01,19,12,56,2.00
2009,01,19,12,57,2.00
2009,01,19,12,58,1.90
2009,01,19,12,59,1.90
2009,01,19,13,00,1.90
2009,01,19,13,01,1.90
2009,01,19,13,02,1.90
2009,01,19,13,03,1.80
2009,01,19,13,04,1.80
2009,01,19,13,05,1.70
2009,01,19,13,06,1.70
2009,01,19,13,07,1.70
2009,01,19,13,08,1.80
2009,01,19,13,09,1.80
2009,01,19,13,10,1.80
2009,01,19,13,11,1.80
2009,01,19,13,12,1.80
2009,01,19,13,13,1.80
2009,01,19,13,14,1.80
2009,01,19,13,15,1.80
2009,01,19,13,16,1.80
2009,01,19,13,17,1.80
2009,01,19,13,18,1.70
2009,01,19,13,19,1.70
2009,01,19,13,20,1.80
2009,01,19,13,21,1.80
2009,01,19,13,22,1.80
2009,01,19,13,23,1.80
2009,01,19,13,24,1.80
2009,01,19,13,25,1.80
2009,01,19,13,26,1.80
2009,01,19,13,27,1.80
2009,01,19,13,28,1.90
2009,01,19,13,29,1.90
2009,01,19,13,30,1.90
2009,01,19,13,31,1.90
2009,01,19,13,32,1.90
2009,01,19,13,33,1.80
2009,01,19,13,34,1.80
2009,01,19,13,35,1.90
2009,01,19,13,36,1.90
2009,01,19,13,37,1.90
2009,01,19,13,38,1.90
2009,01,19,13,39,1.90
2009,01,19,13,40,1.90
2009,01,19,13,41,1.80
2009,01,19,13,42,1.80
2009,01,19,13,43,1.80
2009,01,19,13,44,1.80
2009,01,19,13,45,1.80
2009,01,19,13,46,1.90
2009,01,19,13,47,1.90
2009,01,19,13,48,1.90
2009,01,19,13,49,2.00
2009,01,19,13,50,2.00
2009,01,19,13,51,2.10
2009,01,19,13,52,2.10
2009,01,19,13,53,2.20
2009,01,19,13,54,2.20
2009,01,19,13,55,2.10
2009,01,19,13,56,2.10
2009,01,19,13,57,2.10
2009,01,19,13,58,2.10
2009,01,19,13,59,2.10
2009,01,19,14,00,2.10
2009,01,19,14,01,2.10
2009,01,19,14,02,2.00
2009,01,19,14,03,2.00
2009,01,19,14,04,1.90
2009,01,19,14,05,1.90
2009,01,19,14,06,1.80
2009,01,19,14,07,1.80
2009,01,19,14,08,1.80
2009,01,19,14,09,1.80
2009,01,19,14,10,1.80
2009,01,19,14,11,1.80
2009,01,19,14,12,1.80
2009,01,19,14,13,1.80
2009,01,19,14,14,1.80
2009,01,19,14,15,1.80
2009,01,19,14,16,1.80
2009,01,19,14,17,1.80
2009,01,19,14,18,1.80
2009,01,19,14,19,1.80
2009,01,19,14,20,1.80
2009,01,19,14,21,1.80
2009,01,19,14,22,1.80
2009,01,19,14,23,1.80
2009,01,19,14,24,1.90
2009,01,19,14,25,1.90
2009,01,19,14,26,1.90
2009,01,19,14,27,1.90
2009,01,19,14,28,2.00
2009,01,19,14,29,2.10
2009,01,19,14,30,2.10
2009,01,19,14,31,2.10
2009,01,19,14,32,2.10
2009,01,19,14,33,2.10
2009,01,19,14,34,2.10
2009,01,19,14,35,2.10
2009,01,19,14,36,2.10
2009,01,19,14,37,2.10
2009,01,19,14,38,2.10
2009,01,19,14,39,2.10
2009,01,19,14,40,2.10
2009,01,19,14,41,2.10
2009,01,19,14,42,2.10
2009,01,19,14,43,2.20
2009,01,19,14,44,2.20
2009,01,19,14,45,2.20
2009,01,19,14,46,2.20
2009,01,19,14,47,2.20
2009,01,19,14,48,2.20
2009,01,19,14,49,2.20
2009,01,19,14,50,2.20
2009,01,19,14,51,2.20
2009,01,19,14,52,2.20
2009,01,19,14,53,2.30
2009,01,19,14,54,2.30
2009,01,19,14,55,2.30
2009,01,19,14,56,2.30
2009,01,19,14,57,2.30
2009,01,19,14,58,2.40
2009,01,19,14,59,2.40
2009,01,19,15,00,2.40
2009,01,19,15,01,2.40
2009,01,19,15,02,2.40
2009,01,19,15,03,2.40
2009,01,19,15,04,2.40
2009,01,19,15,05,2.40
2009,01,19,15,06,2.40
2009,01,19,15,07,2.40
2009,01,19,15,08,2.40
2009,01,19,15,09,2.40
2009,01,19,15,10,2.30
2009,01,19,15,11,2.30
2009,01,19,15,12,2.30
2009,01,19,15,13,2.30
2009,01,19,15,14,2.30
2009,01,19,15,15,2.30
2009,01,19,15,16,2.20
2009,01,19,15,17,2.30
2009,01,19,15,18,2.20
2009,01,19,15,19,2.20
2009,01,19,15,20,2.20
2009,01,19,15,21,2.20
2009,01,19,15,22,2.20
2009,01,19,15,23,2.20
2009,01,19,15,24,2.20
2009,01,19,15,25,2.20
2009,01,19,15,26,2.20
2009,01,19,15,27,2.20
2009,01,19,15,28,2.20
2009,01,19,15,29,2.20
2009,01,19,15,30,2.20
2009,01,19,15,31,2.20
2009,01,19,15,32,2.20
2009,01,19,15,33,2.20
2009,01,19,15,34,2.20
2009,01,19,15,35,2.20
2009,01,19,15,36,2.20
2009,01,19,15,37,2.20
2009,01,19,15,38,2.20
2009,01,19,15,39,2.20
2009,01,19,15,40,2.20
2009,01,19,15,41,2.20
2009,01,19,15,42,2.20
2009,01,19,15,43,2.20
2009,01,19,15,44,2.20
2009,01,19,15,45,2.20
2009,01,19,15,46,2.20
2009,01,19,15,47,2.20
2009,01,19,15,48,2.20
2009,01,19,15,49,2.20
2009,01,19,15,50,2.20
2009,01,19,15,51,2.20
2009,01,19,15,52,2.20
2009,01,19,15,53,2.20
2009,01,19,15,54,2.20
2009,01,19,15,55,2.20
2009,01,19,15,56,2.20
2009,01,19,15,57,2.20
2009,01,19,15,58,2.20
2009,01,19,15,59,2.20
2009,01,19,16,00,2.20
2009,01,19,16,01,2.20
2009,01,19,16,02,2.20
2009,01,19,16,03,2.20
2009,01,19,16,04,2.10
2009,01,19,16,05,2.10
2009,01,19,16,06,2.10
2009,01,19,16,07,2.10
2009,01,19,16,08,2.10
2009,01,19,16,09,2.10
2009,01,19,16,10,2.10
2009,01,19,16,11,2.10
2009,01,19,16,12,2.10
2009,01,19,16,13,2.10
2009,01,19,16,14,2.10
2009,01,19,16,15,2.10
2009,01,19,16,16,2.10
2009,01,19,16,17,2.10
2009,01,19,16,18,2.10
2009,01,19,16,19,2.10
2009,01,19,16,20,2.10
2009,01,19,16,21,2.10
2009,01,19,16,22,2.10
2009,01,19,16,23,2.10
2009,01,19,16,24,2.10
2009,01,19,16,25,2.10
2009,01,19,16,26,2.10
2009,01,19,16,27,2.10
2009,01,19,16,28,2.10
2009,01,19,16,29,2.00
2009,01,19,16,30,2.00
2009,01,19,16,31,2.00
2009,01,19,16,32,2.00
2009,01,19,16,33,2.00
2009,01,19,16,34,1.90
2009,01,19,16,35,1.90
2009,01,19,16,36,1.90
2009,01,19,16,37,1.90
2009,01,19,16,38,1.90
2009,01,19,16,39,1.90
2009,01,19,16,40,1.90
2009,01,19,16,41,1.90
2009,01,19,16,42,1.90
2009,01,19,16,43,1.90
2009,01,19,16,44,1.90
2009,01,19,16,45,1.90
2009,01,19,16,46,1.90
2009,01,19,16,47,1.90
2009,01,19,16,48,1.90
2009,01,19,16,49,1.90
2009,01,19,16,50,1.90
2009,01,19,16,51,1.90
2009,01,19,16,52,1.90
2009,01,19,16,53,1.90
2009,01,19,16,54,1.90
2009,01,19,16,55,1.90
2009,01,19,16,56,1.90
2009,01,19,16,57,1.90
2009,01,19,16,58,1.90
2009,01,19,16,59,1.90
2009,01,19,17,00,1.90
2009,01,19,17,01,1.90
2009,01,19,17,02,2.00
2009,01,19,17,03,2.00
2009,01,19,17,04,1.90
2009,01,19,17,05,2.00
2009,01,19,17,06,2.00
2009,01,19,17,07,2.00
2009,01,19,17,08,2.00
2009,01,19,17,09,2.00
2009,01,19,17,10,2.00
2009,01,19,17,11,2.00
2009,01,19,17,12,2.00
2009,01,19,17,13,2.00
2009,01,19,17,14,2.00
2009,01,19,17,15,2.00
2009,01,19,17,16,2.00
2009,01,19,17,17,2.00
2009,01,19,17,18,2.00
2009,01,19,17,19,2.10
2009,01,19,17,20,2.00
2009,01,19,17,21,2.10
2009,01,19,17,22,2.10
2009,01,19,17,23,2.10
2009,01,19,17,24,2.10
2009,01,19,17,25,2.10
2009,01,19,17,26,2.10
2009,01,19,17,27,2.10
2009,01,19,17,28,2.10
2009,01,19,17,29,2.10
2009,01,19,17,30,2.10
2009,01,19,17,31,2.10
2009,01,19,17,32,2.10
2009,01,19,17,33,2.10
2009,01,19,17,34,2.10
2009,01,19,17,35,2.10
2009,01,19,17,36,2.20
2009,01,19,17,37,2.20
2009,01,19,17,38,2.20
2009,01,19,17,39,2.20
2009,01,19,17,40,2.20
2009,01,19,17,41,2.20
2009,01,19,17,42,2.20
2009,01,19,17,43,2.20
2009,01,19,17,44,2.20
2009,01,19,17,45,2.20
2009,01,19,17,46,2.20
2009,01,19,17,47,2.20
2009,01,19,17,48,2.20
2009,01,19,17,49,2.20
2009,01,19,17,50,2.20
2009,01,19,17,51,2.20
2009,01,19,17,52,2.20
2009,01,19,17,53,2.20
2009,01,19,17,54,2.20
2009,01,19,17,55,2.20
2009,01,19,17,56,2.30
2009,01,19,17,57,2.30
2009,01,19,17,58,2.30
2009,01,19,17,59,2.30
2009,01,19,18,00,2.30
2009,01,19,18,01,2.30
2009,01,19,18,02,2.30
2009,01,19,18,03,2.30
2009,01,19,18,04,2.30
2009,01,19,18,05,2.30
2009,01,19,18,06,2.30
2009,01,19,18,07,2.30
2009,01,19,18,08,2.30
2009,01,19,18,09,2.30
2009,01,19,18,10,2.30
2009,01,19,18,11,2.30
2009,01,19,18,12,2.30
2009,01,19,18,13,2.30
2009,01,19,18,14,2.30
2009,01,19,18,15,2.30
2009,01,19,18,16,2.30
2009,01,19,18,17,2.30
2009,01,19,18,18,2.30
2009,01,19,18,19,2.30
2009,01,19,18,20,2.30
2009,01,19,18,21,2.30
2009,01,19,18,22,2.30
2009,01,19,18,23,2.30
2009,01,19,18,24,2.30
2009,01,19,18,25,2.30
2009,01,19,18,26,2.30
2009,01,19,18,27,2.30
2009,01,19,18,28,2.30
2009,01,19,18,29,2.30
2009,01,19,18,30,2.30
2009,01,19,18,31,2.30
2009,01,19,18,32,2.30
2009,01,19,18,33,2.30
2009,01,19,18,34,2.30
2009,01,19,18,35,2.30
2009,01,19,18,36,2.30
2009,01,19,18,37,2.30
2009,01,19,18,38,2.30
2009,01,19,18,39,2.20
2009,01,19,18,40,2.20
2009,01,19,18,41,2.20
2009,01,19,18,42,2.20
2009,01,19,18,43,2.20
2009,01,19,18,44,2.20
2009,01,19,18,45,2.20
2009,01,19,18,46,2.20
2009,01,19,18,47,2.20
2009,01,19,18,48,2.10
2009,01,19,18,49,2.10
2009,01,19,18,50,2.10
2009,01,19,18,51,2.10
2009,01,19,18,52,2.10
2009,01,19,18,53,2.10
2009,01,19,18,54,2.10
2009,01,19,18,55,2.10
2009,01,19,18,56,2.10
2009,01,19,18,57,2.10
2009,01,19,18,58,2.10
2009,01,19,18,59,2.10
2009,01,19,19,00,2.10
2009,01,19,19,01,2.10
2009,01,19,19,02,2.10
2009,01,19,19,03,2.00
2009,01,19,19,04,2.00
2009,01,19,19,05,2.00
2009,01,19,19,06,2.00
2009,01,19,19,07,2.00
2009,01,19,19,08,2.00
2009,01,19,19,09,2.00
2009,01,19,19,10,2.00
2009,01,19,19,11,2.00
2009,01,19,19,12,2.00
2009,01,19,19,13,2.00
2009,01,19,19,14,2.00
2009,01,19,19,15,2.00
2009,01,19,19,16,2.00
2009,01,19,19,17,2.00
2009,01,19,19,18,2.00
2009,01,19,19,19,2.00
2009,01,19,19,20,2.00
2009,01,19,19,21,2.00
2009,01,19,19,22,2.00
2009,01,19,19,23,2.00
2009,01,19,19,24,2.00
2009,01,19,19,25,2.00
2009,01,19,19,26,2.00
2009,01,19,19,27,2.00
2009,01,19,19,28,2.00
2009,01,19,19,29,2.00
2009,01,19,19,30,2.00
2009,01,19,19,31,2.00
2009,01,19,19,32,2.00
2009,01,19,19,33,2.00
2009,01,19,19,34,2.00
2009,01,19,19,35,2.00
2009,01,19,19,36,2.00
2009,01,19,19,37,2.00
2009,01,19,19,38,2.00
2009,01,19,19,39,2.00
2009,01,19,19,40,2.00
2009,01,19,19,41,1.90
2009,01,19,19,42,1.90
2009,01,19,19,43,1.90
2009,01,19,19,44,1.90
2009,01,19,19,45,1.90
2009,01,19,19,46,1.80
2009,01,19,19,47,1.80
2009,01,19,19,48,1.80
2009,01,19,19,49,1.80
2009,01,19,19,50,1.80
2009,01,19,19,51,1.80
2009,01,19,19,52,1.80
2009,01,19,19,53,1.80
2009,01,19,19,54,1.80
2009,01,19,19,55,1.80
2009,01,19,19,56,1.70
2009,01,19,19,57,1.70
2009,01,19,19,58,1.70
2009,01,19,19,59,1.70
2009,01,19,20,00,1.70
2009,01,19,20,01,1.70
2009,01,19,20,02,1.70
2009,01,19,20,03,1.70
2009,01,19,20,04,1.70
2009,01,19,20,05,1.60
2009,01,19,20,06,1.60
2009,01,19,20,07,1.60
2009,01,19,20,08,1.50
2009,01,19,20,09,1.50
2009,01,19,20,10,1.40
2009,01,19,20,11,1.40
2009,01,19,20,12,1.30
2009,01,19,20,13,1.30
2009,01,19,20,14,1.30
2009,01,19,20,15,1.30
2009,01,19,20,16,1.30
2009,01,19,20,17,1.30
2009,01,19,20,18,1.30
2009,01,19,20,19,1.20
2009,01,19,20,20,1.20
2009,01,19,20,21,1.20
2009,01,19,20,22,1.20
2009,01,19,20,23,1.10
2009,01,19,20,24,1.10
2009,01,19,20,25,1.10
2009,01,19,20,26,1.10
2009,01,19,20,27,1.00
2009,01,19,20,28,1.00
2009,01,19,20,29,0.90
2009,01,19,20,30,0.90
2009,01,19,20,31,0.90
2009,01,19,20,32,0.90
2009,01,19,20,33,0.90
2009,01,19,20,34,0.80
2009,01,19,20,35,0.80
2009,01,19,20,36,0.80
2009,01,19,20,37,0.80
2009,01,19,20,38,0.80
2009,01,19,20,39,0.80
2009,01,19,20,40,0.70
2009,01,19,20,41,0.70
2009,01,19,20,42,0.70
2009,01,19,20,43,0.70
2009,01,19,20,44,0.70
2009,01,19,20,45,0.60
2009,01,19,20,46,0.60
2009,01,19,20,47,0.60
2009,01,19,20,48,0.60
2009,01,19,20,49,0.60
2009,01,19,20,50,0.60
2009,01,19,20,51,0.50
2009,01,19,20,52,0.50
2009,01,19,20,53,0.50
2009,01,19,20,54,0.50
2009,01,19,20,55,0.50
2009,01,19,20,56,0.50
2009,01,19,20,57,0.40
2009,01,19,20,58,0.40
2009,01,19,20,59,0.40
2009,01,19,21,00,0.40
2009,01,19,21,01,0.40
2009,01,19,21,02,0.40
2009,01,19,21,03,0.40
2009,01,19,21,04,0.40
2009,01,19,21,05,0.40
2009,01,19,21,06,0.40
2009,01,19,21,07,0.40
2009,01,19,21,08,0.40
2009,01,19,21,09,0.40
2009,01,19,21,10,0.40
2009,01,19,21,11,0.50
2009,01,19,21,12,0.50
2009,01,19,21,13,0.50
2009,01,19,21,14,0.60
2009,01,19,21,15,0.60
2009,01,19,21,16,0.60
2009,01,19,21,17,0.60
2009,01,19,21,18,0.70
2009,01,19,21,19,0.70
2009,01,19,21,20,0.70
2009,01,19,21,21,0.70
2009,01,19,21,22,0.70
2009,01,19,21,23,0.80
2009,01,19,21,24,0.80
2009,01,19,21,25,0.80
2009,01,19,21,26,0.80
2009,01,19,21,27,0.90
2009,01,19,21,28,0.90
2009,01,19,21,29,0.90
2009,01,19,21,30,0.90
2009,01,19,21,31,0.90
2009,01,19,21,32,0.90
2009,01,19,21,33,0.90
2009,01,19,21,34,0.90
2009,01,19,21,35,0.90
2009,01,19,21,36,0.90
2009,01,19,21,37,0.90
2009,01,19,21,38,0.90
2009,01,19,21,39,0.90
2009,01,19,21,40,0.90
2009,01,19,21,41,0.90
2009,01,19,21,42,0.90
2009,01,19,21,43,0.90
2009,01,19,21,44,0.90
2009,01,19,21,45,0.90
2009,01,19,21,46,0.90
2009,01,19,21,47,0.90
2009,01,19,21,48,0.90
2009,01,19,21,49,0.90
2009,01,19,21,50,0.90
2009,01,19,21,51,0.90
2009,01,19,21,52,0.90
2009,01,19,21,53,0.90
2009,01,19,21,54,0.90
2009,01,19,21,55,0.90
2009,01,19,21,56,0.90
2009,01,19,21,57,0.90
2009,01,19,21,58,0.90
2009,01,19,21,59,0.90
2009,01,19,22,00,0.90
2009,01,19,22,01,0.90
2009,01,19,22,02,0.90
2009,01,19,22,03,0.90
2009,01,19,22,04,0.90
2009,01,19,22,05,0.90
2009,01,19,22,06,0.90
2009,01,19,22,07,0.90
2009,01,19,22,08,0.90
2009,01,19,22,09,0.90
2009,01,19,22,10,0.90
2009,01,19,22,11,0.90
2009,01,19,22,12,0.80
2009,01,19,22,13,0.80
2009,01,19,22,14,0.80
2009,01,19,22,15,0.80
2009,01,19,22,16,0.80
2009,01,19,22,17,0.80
2009,01,19,22,18,0.80
2009,01,19,22,19,0.80
2009,01,19,22,20,0.80
2009,01,19,22,21,0.70
2009,01,19,22,22,0.70
2009,01,19,22,23,0.70
2009,01,19,22,24,0.70
2009,01,19,22,25,0.60
2009,01,19,22,26,0.60
2009,01,19,22,27,0.60
2009,01,19,22,28,0.60
2009,01,19,22,29,0.50
2009,01,19,22,30,0.50
2009,01,19,22,31,0.50
2009,01,19,22,32,0.50
2009,01,19,22,33,0.40
2009,01,19,22,34,0.40
2009,01,19,22,35,0.40
2009,01,19,22,36,0.40
2009,01,19,22,37,0.30
2009,01,19,22,38,0.30
2009,01,19,22,39,0.30
2009,01,19,22,40,0.30
2009,01,19,22,41,0.20
2009,01,19,22,42,0.20
2009,01,19,22,43,0.20
2009,01,19,22,44,0.20
2009,01,19,22,45,0.10
2009,01,19,22,46,0.10
2009,01,19,22,47,0.10
2009,01,19,22,48,0.10
2009,01,19,22,49,0.10
2009,01,19,22,50,0.10
2009,01,19,22,51,0.00
2009,01,19,22,52,0.00
2009,01,19,22,53,0.00
2009,01,19,22,54,0.00
2009,01,19,22,55,0.00
2009,01,19,22,56,-0.10
2009,01,19,22,57,-0.10
2009,01,19,22,58,-0.10
2009,01,19,22,59,-0.10
2009,01,19,23,00,-0.10
2009,01,19,23,01,-0.10
2009,01,19,23,02,-0.10
2009,01,19,23,03,-0.10
2009,01,19,23,04,-0.10
2009,01,19,23,05,-0.10
2009,01,19,23,06,-0.10
2009,01,19,23,07,-0.10
2009,01,19,23,08,-0.10
2009,01,19,23,09,-0.20
2009,01,19,23,10,-0.10
2009,01,19,23,11,-0.20
2009,01,19,23,12,-0.20
2009,01,19,23,13,-0.20
2009,01,19,23,14,-0.20
2009,01,19,23,15,-0.20
2009,01,19,23,16,-0.20
2009,01,19,23,17,-0.20
2009,01,19,23,18,-0.20
2009,01,19,23,19,-0.20
2009,01,19,23,20,-0.20
2009,01,19,23,21,-0.20
2009,01,19,23,22,-0.20
2009,01,19,23,23,-0.20
2009,01,19,23,24,-0.20
2009,01,19,23,25,-0.20
2009,01,19,23,26,-0.20
2009,01,19,23,27,-0.20
2009,01,19,23,28,-0.20
2009,01,19,23,29,-0.20
2009,01,19,23,30,-0.20
2009,01,19,23,31,-0.20
2009,01,19,23,32,-0.20
2009,01,19,23,33,-0.20
2009,01,19,23,34,-0.20
2009,01,19,23,35,-0.20
2009,01,19,23,36,-0.20
2009,01,19,23,37,-0.10
2009,01,19,23,38,-0.10
2009,01,19,23,39,-0.20
2009,01,19,23,40,-0.20
2009,01,19,23,41,-0.20
2009,01,19,23,42,-0.20
2009,01,19,23,43,-0.20
2009,01,19,23,44,-0.20
2009,01,19,23,45,-0.20
2009,01,19,23,46,-0.20
2009,01,19,23,47,-0.20
2009,01,19,23,48,-0.20
2009,01,19,23,49,-0.20
2009,01,19,23,50,-0.20
2009,01,19,23,51,-0.20
2009,01,19,23,52,-0.30
2009,01,19,23,53,-0.20
2009,01,19,23,54,-0.30
2009,01,19,23,55,-0.30
2009,01,19,23,56,-0.30
2009,01,19,23,57,-0.30
2009,01,19,23,58,-0.30
2009,01,19,23,59,-0.30
